Location: Olda
(45.8833°N, 9.5500°E)
Time: 08:03:14
(UTC+00:00)

USA 308 - Pass Details

Date: 03 March 2021
Orbit: 571 x 574 km, 54.0° (Epoch: 10 April)

Event Time Altitude Azimuth Distance (km) Brightness Sun altitude
Rises 18:27:06 0° 284° (WNW) 2,780 8.3 -14.0°
Reaches altitude 10° 18:29:38 10° 297° (WNW) 1,881 6.7 -14.4°
Maximum altitude 18:33:19 27° 356° (N) 1,109 4.4 -15.0°
Enters shadow 18:35:59 15° 47° (NE) 1,559 4.8 -15.5°
